Regional Weather Roundup
Issued by NWS Cleveland, OH

Home | Current Version | Previous Version | Text Only | Print | Product List | Glossary Off
Versions: 1 2 3 4 5 6 7 8 9 10 11 12 13 14 15 16 17 18 19 20 21 22 23 24 25 26 27 28 29 30 31 32 33 34 35 36 37 38 39 40 41 42 43 44 45 46 47 48 49 50

000
ASUS41 KCLE 260402
RWRCLE
OHIO REGIONAL WEATHER ROUNDUP
NATIONAL WEATHER SERVICE CLEVELAND, OH
1100 PM EST TUE NOV 25 2014

NOTE: "FAIR" INDICATES FEW OR NO CLOUDS BELOW 12,000 FEET WITH NO
SIGNIFICANT WEATHER AND/OR OBSTRUCTIONS TO VISIBILITY.

OHZ001>008-015>018-024>027-034-035-043-044-260500-
   NORTHWEST OHIO

CITY           SKY/WX    TMP DP  RH WIND       PRES   REMARKS
DEFIANCE       NOT AVBL
FINDLAY        CLOUDY    30  21  69 CALM      30.20S
TOLEDO EXPRESS CLOUDY    28  19  69 NW3       30.22R
TOLEDO EXEC    CLOUDY    29  19  66 NW3       30.23S
LIMA           CLOUDY    28  20  71 VRB3      30.19F
$$

OHZ009>014-019>023-028>033-038-089-260500-
   NORTHEAST OHIO

CITY           SKY/WX    TMP DP  RH WIND       PRES   REMARKS
CLE-HOPKINS    CLOUDY    31  23  72 CALM      30.23F
CLE-LAKEFRONT  CLOUDY    33  23  66 SW3       30.21F
CUY CO. ARPT   CLOUDY    34  27  75 SW9       30.22R WCI  26
LORAIN-ELYRIA  CLOUDY    30  22  72 CALM      30.21F
ASHTABULA      CLOUDY    33  24  69 NW5       30.21S WCI  29
AKRON-CANTON   CLOUDY    32  25  75 NW8       30.17F WCI  25
WOOSTER        CLOUDY    30  25  81 N7        30.18F WCI  23
MANSFIELD      CLOUDY    29  23  78 NW7       30.17F WCI  22
YOUNGSTOWN     CLOUDY    32  26  78 NW9       30.18F WCI  24
$$

OHZ042-051>053-060>062-070>072-077>081-260500-
  SOUTHWEST OHIO

CITY           SKY/WX    TMP DP  RH WIND       PRES   REMARKS
CINC-COVINGTON CLOUDY    31  25  78 N6        30.17F WCI  25
CINC-LUNKEN    MOCLDY    33  27  78 N5        30.20F WCI  29
HAMILTON       MOCLDY    28  26  92 CALM      30.20F
DAYTON         CLOUDY    29  25  85 N6        30.18F WCI  23
WRIGHT-PAT AFB MOCLDY    29  25  85 E3        30.18F
DAYTON GENERAL PTCLDY    29  26  89 E5        30.17F WCI  24
WILMINGTON     MOCLDY    28  25  88 NE7       30.16F WCI  21
$$

OHZ036-037-039>041-045>050-054>059-063>069-073>076-082>088-260500-
  CENTRAL AND SOUTHEAST OHIO

CITY           SKY/WX    TMP DP  RH WIND       PRES   REMARKS
COLUMBUS       PTCLDY    29  24  82 N6        30.18F WCI  23
OSU AIRPORT    PTCLDY    27  23  85 N7        30.17F WCI  19
BOLTON FIELD   NOT AVBL
RICKENBACK AFB NOT AVBL
NEWARK         PTCLDY    30  25  81 N5        30.17F WCI  25
MARION         CLOUDY    29  22  75 N6        30.19F WCI  23
LANCASTER      PTCLDY    30  26  85 N7        30.17F WCI  23
ZANESVILLE     PTCLDY    29  24  82 N3        30.17F
NEW PHILLY     PTCLDY    32  27  81 NW3       30.19F
$$



USA.gov is the U.S. government's official web portal to all federal, state and local government web resources and services.